| time (UTC) | temp F | wind direction | speed MPH | gust MPH | rain 1hr in | rain 24hr in | rain mn in | humidity % | barometer mb |
| 20260901192511 | 95 | 101 | 6.0 | 10.0 | 0.00 | 0.00 | 0.00 | 53 | 1016.9 |
| 20260901192012 | 95 | 44 | 7.0 | 12.0 | 0.00 | 0.00 | 0.00 | 54 | 1016.9 |
| 20260901191512 | 95 | 109 | 7.0 | 12.0 | 0.00 | 0.00 | 0.00 | 54 | 1017.0 |
| 20260901191012 | 95 | 115 | 5.0 | 11.0 | 0.00 | 0.00 | 0.00 | 54 | 1017.1 |
| 20260901190511 | 96 | 93 | 4.0 | 10.0 | 0.00 | 0.00 | 0.00 | 51 | 1017.2 |
| 20260901190009 | 96 | 127 | 5.0 | 10.0 | 0.00 | 0.00 | 0.00 | 52 | 1017.3 |
| 20260901185510 | 96 | 135 | 4.0 | 9.0 | 0.00 | 0.00 | 0.00 | 51 | 1017.3 |
| 20260901185010 | 95 | 128 | 3.0 | 11.0 | 0.00 | 0.00 | 0.00 | 53 | 1017.4 |
| 20260901184509 | 95 | 40 | 4.0 | 11.0 | 0.00 | 0.00 | 0.00 | 54 | 1017.4 |
| 20260901184009 | 94 | 88 | 5.0 | 11.0 | 0.00 | 0.00 | 0.00 | 54 | 1017.5 |
| 20260901183505 | 94 | 114 | 4.0 | 11.0 | 0.00 | 0.00 | 0.00 | 56 | 1017.6 |
| 20260901183006 | 93 | 28 | 3.0 | 9.0 | 0.00 | 0.00 | 0.00 | 56 | 1017.6 |
| 20260901182734 | 94 | 87 | 4.0 | 9.0 | 0.00 | 0.00 | 0.00 | 55 | 1017.7 |
| 20260901182007 | 94 | 34 | 5.0 | 9.0 | 0.00 | 0.00 | 0.00 | 53 | 1017.9 |
| 20260901181506 | 94 | 74 | 5.0 | 10.0 | 0.00 | 0.00 | 0.00 | 55 | 1017.9 |
| 20260901181005 | 94 | 130 | 5.0 | 10.0 | 0.00 | 0.00 | 0.00 | 57 | 1018.0 |
| 20260901180506 | 94 | 77 | 3.0 | 10.0 | 0.00 | 0.00 | 0.00 | 56 | 1018.0 |
| 20260901180006 | 94 | 0 | 3.0 | 10.0 | 0.00 | 0.00 | 0.00 | 59 | 1018.1 |
| 20260901175506 | 93 | 349 | 4.0 | 10.0 | 0.00 | 0.00 | 0.00 | 57 | 1018.1 |
| 20260901175004 | 93 | 107 | 4.0 | 10.0 | 0.00 | 0.00 | 0.00 | 59 | 1018.2 |
| 20260901174503 | 93 | 105 | 4.0 | 10.0 | 0.00 | 0.00 | 0.00 | 59 | 1018.3 |
| 20260901174004 | 93 | 31 | 5.0 | 11.0 | 0.00 | 0.00 | 0.00 | 58 | 1018.3 |
| 20260901173504 | 93 | 110 | 4.0 | 11.0 | 0.00 | 0.00 | 0.00 | 58 | 1018.5 |
| 20260901173004 | 93 | 162 | 4.0 | 9.0 | 0.00 | 0.00 | 0.00 | 60 | 1018.5 |
| 20260901172504 | 92 | 171 | 3.0 | 10.0 | 0.00 | 0.00 | 0.00 | 60 | 1018.6 |
| 20260901172002 | 92 | 45 | 3.0 | 10.0 | 0.00 | 0.00 | 0.00 | 60 | 1018.5 |
| 20260901171724 | 92 | 130 | 5.0 | 12.0 | 0.00 | 0.00 | 0.00 | 59 | 1018.7 |
| 20260901171002 | 92 | 0 | 4.0 | 12.0 | 0.00 | 0.00 | 0.00 | 60 | 1018.8 |
| 20260901170501 | 92 | 113 | 2.0 | 8.0 | 0.00 | 0.00 | 0.00 | 61 | 1018.7 |
| 20260901170002 | 92 | 115 | 3.0 | 9.0 | 0.00 | 0.00 | 0.00 | 62 | 1018.9 |
| 20260901165501 | 91 | 117 | 5.0 | 10.0 | 0.00 | 0.00 | 0.00 | 62 | 1018.8 |
| 20260901165001 | 91 | 107 | 4.0 | 10.0 | 0.00 | 0.00 | 0.00 | 63 | 1018.8 |
| 20260901164501 | 92 | 107 | 3.0 | 9.0 | 0.00 | 0.00 | 0.00 | 62 | 1018.9 |
| 20260901164001 | 91 | 98 | 4.0 | 7.0 | 0.00 | 0.00 | 0.00 | 63 | 1019.0 |
| 20260901163501 | 91 | 79 | 4.0 | 7.0 | 0.00 | 0.00 | 0.00 | 63 | 1019.2 |
| 20260901163001 | 91 | 127 | 3.0 | 7.0 | 0.00 | 0.00 | 0.00 | 63 | 1019.1 |
| 20260901162501 | 91 | 155 | 2.0 | 6.0 | 0.00 | 0.00 | 0.00 | 64 | 1019.2 |
| 20260901162001 | 91 | 336 | 2.0 | 6.0 | 0.00 | 0.00 | 0.00 | 65 | 1019.2 |
| 20260901161500 | 90 | 60 | 1.0 | 6.0 | 0.00 | 0.00 | 0.00 | 65 | 1019.2 |
| 20260901161001 | 90 | 16 | 1.0 | 6.0 | 0.00 | 0.00 | 0.00 | 68 | 1019.3 |
| 20260901160501 | 89 | 16 | 2.0 | 6.0 | 0.00 | 0.00 | 0.00 | 69 | 1019.3 |
| 20260901160002 | 88 | 123 | 2.0 | 6.0 | 0.00 | 0.00 | 0.00 | 69 | 1019.3 |
| 20260901155726 | 88 | 90 | 2.0 | 5.0 | 0.00 | 0.00 | 0.00 | 69 | 1019.3 |
| 20260901155001 | 88 | 78 | 3.0 | 5.0 | 0.00 | 0.00 | 0.00 | 69 | 1019.3 |
| 20260901154502 | 87 | 0 | 2.0 | 5.0 | 0.00 | 0.00 | 0.00 | 72 | 1019.3 |
| 20260901154000 | 87 | 229 | 2.0 | 5.0 | 0.00 | 0.00 | 0.00 | 71 | 1019.2 |
| 20260901153501 | 87 | 214 | 2.0 | 5.0 | 0.00 | 0.00 | 0.00 | 72 | 1019.2 |
| 20260901153001 | 87 | 227 | 2.0 | 5.0 | 0.00 | 0.00 | 0.00 | 72 | 1019.1 |
| 20260901152501 | 86 | 172 | 2.0 | 5.0 | 0.00 | 0.00 | 0.00 | 72 | 1019.1 |
| 20260901152001 | 86 | 221 | 2.0 | 5.0 | 0.00 | 0.00 | 0.00 | 73 | 1019.2 |
| 20260901151501 | 86 | 169 | 2.0 | 6.0 | 0.00 | 0.00 | 0.00 | 75 | 1019.2 |
| 20260901151000 | 85 | 262 | 1.0 | 6.0 | 0.00 | 0.00 | 0.00 | 75 | 1019.2 |
| 20260901150458 | 85 | 213 | 1.0 | 4.0 | 0.00 | 0.00 | 0.00 | 77 | 1019.2 |
| 20260901145958 | 84 | 207 | 2.0 | 4.0 | 0.00 | 0.00 | 0.00 | 78 | 1019.2 |
| 20260901145456 | 83 | 205 | 3.0 | 8.0 | 0.00 | 0.00 | 0.00 | 79 | 1019.3 |
| 20260901144953 | 83 | 262 | 4.0 | 8.0 | 0.00 | 0.00 | 0.00 | 81 | 1019.4 |
| 20260901144453 | 83 | 263 | 3.0 | 7.0 | 0.00 | 0.00 | 0.00 | 81 | 1019.3 |
| 20260901143950 | 82 | 229 | 3.0 | 7.0 | 0.00 | 0.00 | 0.00 | 82 | 1019.3 |
| 20260901143449 | 83 | 256 | 3.0 | 9.0 | 0.00 | 0.00 | 0.00 | 82 | 1019.3 |
| 20260901142949 | 82 | 259 | 2.0 | 9.0 | 0.00 | 0.00 | 0.00 | 82 | 1019.3 |
| 20260901142448 | 82 | 225 | 2.0 | 5.0 | 0.00 | 0.00 | 0.00 | 84 | 1019.3 |
| 20260901142211 | 82 | 217 | 2.0 | 5.0 | 0.00 | 0.00 | 0.00 | 83 | 1019.4 |
| 20260901141711 | 82 | 221 | 2.0 | 6.0 | 0.00 | 0.00 | 0.00 | 83 | 1019.5 |
| 20260901140943 | 81 | 264 | 2.0 | 6.0 | 0.00 | 0.00 | 0.00 | 85 | 1019.5 |
| 20260901140443 | 81 | 227 | 1.0 | 6.0 | 0.00 | 0.00 | 0.00 | 84 | 1019.6 |
| 20260901135937 | 81 | 259 | 2.0 | 6.0 | 0.00 | 0.00 | 0.00 | 84 | 1019.5 |
| 20260901135429 | 81 | 206 | 1.0 | 4.0 | 0.00 | 0.00 | 0.00 | 84 | 1019.5 |
| 20260901134925 | 81 | 205 | 0.0 | 2.0 | 0.00 | 0.00 | 0.00 | 84 | 1019.4 |
| 20260901134419 | 80 | 207 | 0.0 | 0.0 | 0.00 | 0.00 | 0.00 | 85 | 1019.4 |
| 20260901133913 | 80 | 207 | 0.0 | 0.0 | 0.00 | 0.00 | 0.00 | 86 | 1019.3 |
| 20260901133414 | 79 | 207 | 0.0 | 0.0 | 0.00 | 0.00 | 0.00 | 87 | 1019.3 |
| 20260901132913 | 78 | 207 | 0.0 | 0.0 | 0.00 | 0.00 | 0.00 | 88 | 1019.2 |
| 20260901132413 | 78 | 207 | 0.0 | 0.0 | 0.00 | 0.00 | 0.00 | 89 | 1019.2 |
| 20260901131912 | 77 | 207 | 0.0 | 0.0 | 0.00 | 0.00 | 0.00 | 90 | 1019.2 |
| 20260901131411 | 76 | 207 | 0.0 | 0.0 | 0.00 | 0.00 | 0.00 | 93 | 1019.0 |
| 20260901130909 | 76 | 207 | 0.0 | 1.0 | 0.00 | 0.00 | 0.00 | 94 | 1019.0 |
| 20260901130412 | 75 | 207 | 0.0 | 1.0 | 0.00 | 0.00 | 0.00 | 95 | 1019.0 |
| 20260901125907 | 74 | 207 | 0.0 | 0.0 | 0.00 | 0.00 | 0.00 | 95 | 1018.8 |
| 20260901125406 | 74 | 207 | 0.0 | 0.0 | 0.00 | 0.00 | 0.00 | 95 | 1018.9 |
| 20260901124905 | 73 | 207 | 0.0 | 0.0 | 0.00 | 0.00 | 0.00 | 95 | 1018.8 |
| 20260901124405 | 73 | 207 | 0.0 | 0.0 | 0.00 | 0.00 | 0.00 | 94 | 1018.8 |
| 20260901123904 | 73 | 207 | 0.0 | 2.0 | 0.00 | 0.00 | 0.00 | 94 | 1018.7 |
| 20260901123403 | 73 | 207 | 0.0 | 2.0 | 0.00 | 0.00 | 0.00 | 94 | 1018.7 |
| 20260901122903 | 73 | 207 | 0.0 | 2.0 | 0.00 | 0.00 | 0.00 | 94 | 1018.5 |
| 20260901122403 | 73 | 207 | 0.0 | 2.0 | 0.00 | 0.00 | 0.00 | 94 | 1018.5 |
| 20260901121903 | 73 | 207 | 0.0 | 0.0 | 0.00 | 0.00 | 0.00 | 93 | 1018.4 |
| 20260901121401 | 73 | 207 | 0.0 | 0.0 | 0.00 | 0.00 | 0.00 | 92 | 1018.4 |
| 20260901120901 | 73 | 207 | 0.0 | 0.0 | 0.00 | 0.00 | 0.00 | 92 | 1018.4 |
| 20260901120408 | 74 | 207 | 0.0 | 0.0 | 0.00 | 0.00 | 0.00 | 92 | 1018.4 |
| 20260901115901 | 74 | 207 | 0.0 | 0.0 | 0.00 | 0.00 | 0.00 | 91 | 1018.4 |
| 20260901115614 | 74 | 207 | 0.0 | 0.0 | 0.00 | 0.00 | 0.00 | 91 | 1018.4 |
| 20260901114849 | 74 | 207 | 0.0 | 0.0 | 0.00 | 0.00 | 0.00 | 91 | 1018.4 |
| 20260901114342 | 74 | 207 | 0.0 | 0.0 | 0.00 | 0.00 | 0.00 | 91 | 1018.4 |
| 20260901113836 | 74 | 207 | 0.0 | 0.0 | 0.00 | 0.00 | 0.00 | 91 | 1018.4 |
| 20260901113330 | 75 | 207 | 0.0 | 0.0 | 0.00 | 0.00 | 0.00 | 90 | 1018.4 |
| 20260901113045 | 75 | 207 | 0.0 | 1.0 | 0.00 | 0.00 | 0.00 | 90 | 1018.2 |
| 20260901112318 | 75 | 207 | 0.0 | 1.0 | 0.00 | 0.00 | 0.00 | 90 | 1018.2 |
| 20260901112031 | 75 | 207 | 0.0 | 4.0 | 0.00 | 0.00 | 0.00 | 90 | 1018.3 |
| 20260901111311 | 75 | 207 | 0.0 | 4.0 | 0.00 | 0.00 | 0.00 | 89 | 1018.3 |
| 20260901110809 | 76 | 207 | 1.0 | 4.0 | 0.00 | 0.00 | 0.00 | 89 | 1018.4 |
| 20260901110801 | 76 | 207 | 1.0 | 5.0 | 0.00 | 0.00 | 0.00 | 89 | 1018.2 |
| 20260901105809 | 76 | 211 | 2.0 | 5.0 | 0.00 | 0.00 | 0.00 | 89 | 1018.2 |
| 20260901105528 | 76 | 214 | 2.0 | 5.0 | 0.00 | 0.00 | 0.00 | 89 | 1018.1 |
| 20260901104809 | 76 | 217 | 2.0 | 5.0 | 0.00 | 0.00 | 0.00 | 89 | 1018.1 |
| 20260901104309 | 76 | 219 | 2.0 | 4.0 | 0.00 | 0.00 | 0.00 | 89 | 1018.2 |
| 20260901103809 | 76 | 212 | 2.0 | 4.0 | 0.00 | 0.00 | 0.00 | 89 | 1018.3 |
| 20260901103307 | 76 | 195 | 1.0 | 3.0 | 0.00 | 0.00 | 0.00 | 89 | 1018.3 |
| 20260901102807 | 76 | 194 | 1.0 | 3.0 | 0.00 | 0.00 | 0.00 | 89 | 1018.3 |
| 20260901102307 | 76 | 192 | 0.0 | 3.0 | 0.00 | 0.00 | 0.00 | 89 | 1018.3 |
| 20260901101805 | 76 | 191 | 0.0 | 3.0 | 0.00 | 0.00 | 0.00 | 88 | 1018.2 |
| 20260901101303 | 77 | 191 | 0.0 | 3.0 | 0.00 | 0.00 | 0.00 | 88 | 1018.3 |
| 20260901100803 | 77 | 191 | 1.0 | 3.0 | 0.00 | 0.00 | 0.00 | 88 | 1018.1 |
| 20260901100303 | 77 | 191 | 1.0 | 3.0 | 0.00 | 0.00 | 0.00 | 87 | 1018.1 |
| 20260901095803 | 77 | 191 | 1.0 | 3.0 | 0.00 | 0.00 | 0.00 | 87 | 1018.2 |
| 20260901095518 | 77 | 192 | 1.0 | 4.0 | 0.00 | 0.00 | 0.00 | 87 | 1018.2 |
| 20260901094757 | 77 | 192 | 1.0 | 4.0 | 0.00 | 0.00 | 0.00 | 87 | 1018.2 |
| 20260901094517 | 77 | 194 | 2.0 | 4.0 | 0.00 | 0.00 | 0.00 | 87 | 1018.3 |
| 20260901093757 | 77 | 190 | 1.0 | 4.0 | 0.00 | 0.00 | 0.00 | 86 | 1018.2 |
| 20260901093257 | 78 | 188 | 1.0 | 4.0 | 0.00 | 0.00 | 0.00 | 86 | 1018.3 |
| 20260901093019 | 78 | 186 | 2.0 | 5.0 | 0.00 | 0.00 | 0.00 | 86 | 1018.3 |
| 20260901092257 | 78 | 0 | 2.0 | 5.0 | 0.00 | 0.00 | 0.00 | 85 | 1018.3 |
| 20260901091755 | 78 | 190 | 2.0 | 6.0 | 0.00 | 0.00 | 0.00 | 85 | 1018.3 |
| 20260901091255 | 78 | 188 | 3.0 | 6.0 | 0.00 | 0.00 | 0.00 | 85 | 1018.3 |
| 20260901091022 | 78 | 179 | 3.0 | 6.0 | 0.00 | 0.00 | 0.00 | 85 | 1018.3 |
| 20260901090255 | 78 | 192 | 3.0 | 6.0 | 0.00 | 0.00 | 0.00 | 85 | 1018.2 |
| 20260901085754 | 78 | 192 | 3.0 | 6.0 | 0.00 | 0.00 | 0.00 | 84 | 1018.2 |
| 20260901085255 | 78 | 192 | 3.0 | 6.0 | 0.00 | 0.00 | 0.00 | 84 | 1018.2 |
| 20260901084755 | 78 | 0 | 2.0 | 6.0 | 0.00 | 0.00 | 0.00 | 84 | 1018.1 |
| 20260901084251 | 78 | 201 | 3.0 | 6.0 | 0.00 | 0.00 | 0.00 | 84 | 1018.1 |
| 20260901083751 | 78 | 200 | 3.0 | 6.0 | 0.00 | 0.00 | 0.00 | 84 | 1018.1 |
| 20260901083252 | 79 | 184 | 2.0 | 6.0 | 0.00 | 0.00 | 0.00 | 84 | 1018.1 |
| 20260901082751 | 79 | 176 | 2.0 | 5.0 | 0.00 | 0.00 | 0.00 | 83 | 1018.1 |
| 20260901082251 | 79 | 197 | 2.0 | 5.0 | 0.00 | 0.00 | 0.00 | 83 | 1018.1 |
| 20260901082012 | 79 | 178 | 2.0 | 5.0 | 0.00 | 0.00 | 0.00 | 83 | 1018.2 |
| 20260901081250 | 79 | 178 | 2.0 | 5.0 | 0.00 | 0.00 | 0.00 | 83 | 1018.1 |
| 20260901080751 | 79 | 164 | 2.0 | 5.0 | 0.00 | 0.00 | 0.00 | 82 | 1018.2 |
| 20260901080252 | 79 | 159 | 3.0 | 6.0 | 0.00 | 0.00 | 0.00 | 82 | 1018.2 |
| 20260901075751 | 80 | 180 | 3.0 | 7.0 | 0.00 | 0.00 | 0.00 | 82 | 1018.2 |
| 20260901075251 | 80 | 170 | 3.0 | 7.0 | 0.00 | 0.00 | 0.00 | 82 | 1018.2 |
| 20260901074751 | 80 | 165 | 3.0 | 7.0 | 0.00 | 0.00 | 0.00 | 81 | 1018.2 |
| 20260901074251 | 80 | 179 | 3.0 | 6.0 | 0.00 | 0.00 | 0.00 | 81 | 1018.1 |
| 20260901073751 | 80 | 166 | 3.0 | 6.0 | 0.00 | 0.00 | 0.00 | 81 | 1018.2 |
| 20260901073250 | 80 | 160 | 3.0 | 6.0 | 0.00 | 0.00 | 0.00 | 80 | 1018.3 |
| 20260901072751 | 80 | 174 | 4.0 | 9.0 | 0.00 | 0.00 | 0.00 | 80 | 1018.2 |
| 20260901072252 | 81 | 187 | 4.0 | 9.0 | 0.00 | 0.00 | 0.00 | 79 | 1018.1 |
| 20260901071750 | 81 | 166 | 4.0 | 9.0 | 0.00 | 0.00 | 0.00 | 79 | 1018.1 |
| 20260901071249 | 81 | 169 | 4.0 | 9.0 | 0.00 | 0.00 | 0.00 | 79 | 1018.2 |
| 20260901071009 | 81 | 155 | 4.0 | 11.0 | 0.00 | 0.00 | 0.00 | 78 | 1018.2 |
| 20260901070247 | 81 | 220 | 5.0 | 11.0 | 0.00 | 0.00 | 0.00 | 78 | 1018.2 |
| 20260901065747 | 81 | 155 | 5.0 | 10.0 | 0.00 | 0.00 | 0.00 | 78 | 1018.2 |
| 20260901065243 | 81 | 0 | 4.0 | 9.0 | 0.00 | 0.00 | 0.00 | 78 | 1018.2 |
| 20260901064741 | 81 | 171 | 4.0 | 9.0 | 0.00 | 0.00 | 0.00 | 78 | 1018.2 |
| 20260901064239 | 82 | 198 | 4.0 | 8.0 | 0.00 | 0.00 | 0.00 | 77 | 1018.2 |
| 20260901063735 | 82 | 184 | 4.0 | 8.0 | 0.00 | 0.00 | 0.00 | 77 | 1018.2 |
| 20260901063233 | 82 | 170 | 4.0 | 9.0 | 0.00 | 0.00 | 0.00 | 77 | 1018.2 |
| 20260901062732 | 82 | 186 | 4.0 | 9.0 | 0.00 | 0.00 | 0.00 | 77 | 1018.1 |
| 20260901062233 | 82 | 174 | 4.0 | 9.0 | 0.00 | 0.00 | 0.00 | 76 | 1017.9 |
| 20260901061730 | 82 | 158 | 4.0 | 9.0 | 0.00 | 0.00 | 0.00 | 76 | 1017.8 |
| 20260901061229 | 82 | 0 | 4.0 | 10.0 | 0.00 | 0.00 | 0.00 | 76 | 1017.7 |
| 20260901060729 | 83 | 174 | 4.0 | 10.0 | 0.00 | 0.00 | 0.00 | 76 | 1017.9 |
| 20260901060230 | 83 | 196 | 5.0 | 10.0 | 0.00 | 0.00 | 0.00 | 75 | 1017.8 |
| 20260901055730 | 83 | 150 | 5.0 | 10.0 | 0.00 | 0.00 | 0.00 | 75 | 1017.9 |
| 20260901055456 | 83 | 219 | 5.0 | 11.0 | 0.00 | 0.00 | 0.00 | 74 | 1017.8 |
| 20260901054729 | 83 | 161 | 5.0 | 11.0 | 0.00 | 0.00 | 0.00 | 74 | 1017.9 |
| 20260901054226 | 83 | 144 | 5.0 | 10.0 | 0.00 | 0.00 | 0.00 | 74 | 1017.7 |
| 20260901053720 | 83 | 160 | 5.0 | 14.0 | 0.00 | 0.00 | 0.00 | 73 | 1017.7 |
| 20260901053214 | 83 | 169 | 5.0 | 14.0 | 0.00 | 0.00 | 0.00 | 73 | 1017.7 |
| 20260901052708 | 83 | 0 | 4.0 | 10.0 | 0.00 | 0.00 | 0.00 | 72 | 1017.6 |
| 20260901052207 | 84 | 170 | 5.0 | 10.0 | 0.00 | 0.00 | 0.00 | 71 | 1017.7 |
| 20260901051704 | 84 | 178 | 5.0 | 10.0 | 0.00 | 0.00 | 0.00 | 71 | 1017.7 |
| 20260901051204 | 84 | 144 | 5.0 | 10.0 | 0.00 | 0.00 | 0.00 | 70 | 1017.6 |
| 20260901050703 | 84 | 166 | 5.0 | 11.0 | 0.00 | 0.00 | 0.00 | 70 | 1017.5 |
| 20260901050202 | 84 | 149 | 6.0 | 12.0 | 0.00 | 0.00 | 0.00 | 69 | 1017.5 |
| 20260901045702 | 84 | 170 | 6.0 | 12.0 | 0.00 | 0.00 | 0.00 | 69 | 1017.5 |
| 20260901045200 | 85 | 161 | 5.0 | 13.0 | 0.00 | 0.00 | 0.00 | 68 | 1017.5 |
| 20260901044701 | 85 | 141 | 5.0 | 13.0 | 0.00 | 0.00 | 0.00 | 68 | 1017.4 |
| 20260901044201 | 85 | 156 | 5.0 | 11.0 | 0.00 | 0.00 | 0.00 | 68 | 1017.5 |
| 20260901043701 | 85 | 138 | 5.0 | 11.0 | 0.00 | 0.00 | 0.00 | 67 | 1017.4 |
| 20260901043202 | 85 | 144 | 4.0 | 11.0 | 0.00 | 0.00 | 0.00 | 67 | 1017.4 |
| 20260901042702 | 85 | 157 | 4.0 | 10.0 | 0.00 | 0.00 | 0.00 | 66 | 1017.4 |
| 20260901042201 | 85 | 161 | 5.0 | 11.0 | 0.00 | 0.00 | 0.00 | 66 | 1017.3 |
| 20260901042145 | 85 | 134 | 5.0 | 11.0 | 0.00 | 0.00 | 0.00 | 66 | 1017.3 |
| 20260901041201 | 85 | 180 | 5.0 | 11.0 | 0.00 | 0.00 | 0.00 | 65 | 1017.4 |
| 20260901040701 | 86 | 138 | 5.0 | 11.0 | 0.00 | 0.00 | 0.00 | 65 | 1017.3 |
| 20260901040202 | 86 | 138 | 5.0 | 11.0 | 0.00 | 0.00 | 0.00 | 64 | 1017.3 |
| 20260901035657 | 86 | 161 | 5.0 | 11.0 | 0.00 | 0.00 | 0.00 | 63 | 1017.4 |
| 20260901035151 | 86 | 166 | 6.0 | 12.0 | 0.00 | 0.00 | 0.00 | 62 | 1017.4 |
| 20260901034910 | 86 | 188 | 6.0 | 12.0 | 0.00 | 0.00 | 0.00 | 62 | 1017.3 |
| 20260901034140 | 87 | 138 | 7.0 | 13.0 | 0.00 | 0.00 | 0.00 | 60 | 1017.3 |
| 20260901033903 | 87 | 132 | 7.0 | 13.0 | 0.00 | 0.00 | 0.00 | 59 | 1017.3 |
| 20260901033134 | 87 | 134 | 6.0 | 12.0 | 0.00 | 0.00 | 0.00 | 58 | 1017.2 |
| 20260901032634 | 87 | 126 | 5.0 | 10.0 | 0.00 | 0.00 | 0.00 | 58 | 1017.1 |
| 20260901032133 | 87 | 145 | 5.0 | 10.0 | 0.00 | 0.00 | 0.00 | 57 | 1017.1 |
| 20260901031633 | 86 | 136 | 4.0 | 9.0 | 0.00 | 0.00 | 0.00 | 57 | 1016.9 |
| 20260901031132 | 86 | 120 | 4.0 | 8.0 | 0.00 | 0.00 | 0.00 | 56 | 1016.8 |
| 20260901030634 | 86 | 123 | 4.0 | 7.0 | 0.00 | 0.00 | 0.00 | 57 | 1016.7 |
| 20260901030133 | 86 | 134 | 4.0 | 9.0 | 0.00 | 0.00 | 0.00 | 57 | 1016.7 |
| 20260901025633 | 86 | 127 | 4.0 | 9.0 | 0.00 | 0.00 | 0.00 | 57 | 1016.6 |
| 20260901025132 | 86 | 123 | 4.0 | 9.0 | 0.00 | 0.00 | 0.00 | 57 | 1016.5 |
| 20260901024633 | 85 | 132 | 4.0 | 9.0 | 0.00 | 0.00 | 0.00 | 58 | 1016.5 |
| 20260901024353 | 85 | 134 | 3.0 | 9.0 | 0.00 | 0.00 | 0.00 | 58 | 1016.3 |
| 20260901023633 | 85 | 138 | 3.0 | 6.0 | 0.00 | 0.00 | 0.00 | 58 | 1016.3 |
| 20260901023134 | 85 | 126 | 3.0 | 6.0 | 0.00 | 0.00 | 0.00 | 59 | 1016.2 |
| 20260901022630 | 85 | 123 | 3.0 | 6.0 | 0.00 | 0.00 | 0.00 | 58 | 1016.1 |
| 20260901022130 | 85 | 123 | 3.0 | 6.0 | 0.00 | 0.00 | 0.00 | 57 | 1016.1 |
| 20260901021629 | 86 | 111 | 2.0 | 4.0 | 0.00 | 0.00 | 0.00 | 57 | 1016.0 |
| 20260901021129 | 86 | 128 | 2.0 | 4.0 | 0.00 | 0.00 | 0.00 | 57 | 1016.0 |
| 20260901020628 | 86 | 128 | 2.0 | 5.0 | 0.00 | 0.00 | 0.00 | 57 | 1015.9 |
| 20260901020357 | 86 | 126 | 3.0 | 5.0 | 0.00 | 0.00 | 0.00 | 57 | 1015.9 |
| 20260901015629 | 86 | 124 | 3.0 | 5.0 | 0.00 | 0.00 | 0.00 | 57 | 1015.8 |
| 20260901015129 | 86 | 127 | 3.0 | 5.0 | 0.00 | 0.00 | 0.00 | 57 | 1015.7 |
| 20260901014629 | 87 | 126 | 2.0 | 4.0 | 0.00 | 0.00 | 0.00 | 57 | 1015.7 |
| 20260901014127 | 87 | 124 | 2.0 | 4.0 | 0.00 | 0.00 | 0.00 | 56 | 1015.7 |
| 20260901013853 | 87 | 125 | 2.0 | 3.0 | 0.00 | 0.00 | 0.00 | 56 | 1015.7 |
| 20260901013126 | 88 | 125 | 2.0 | 3.0 | 0.00 | 0.00 | 0.00 | 55 | 1015.6 |
| 20260901012626 | 88 | 125 | 2.0 | 4.0 | 0.00 | 0.00 | 0.00 | 54 | 1015.6 |
| 20260901012127 | 88 | 125 | 2.0 | 4.0 | 0.00 | 0.00 | 0.00 | 54 | 1015.6 |
| 20260901011627 | 89 | 128 | 3.0 | 5.0 | 0.00 | 0.00 | 0.00 | 54 | 1015.5 |
| 20260901011127 | 89 | 122 | 3.0 | 5.0 | 0.00 | 0.00 | 0.00 | 54 | 1015.6 |
| 20260901010626 | 89 | 117 | 3.0 | 6.0 | 0.00 | 0.00 | 0.00 | 53 | 1015.5 |
| 20260901010127 | 90 | 119 | 3.0 | 6.0 | 0.00 | 0.00 | 0.00 | 53 | 1015.5 |
| 20260901005626 | 90 | 119 | 3.0 | 6.0 | 0.00 | 0.00 | 0.00 | 53 | 1015.5 |
| 20260901005126 | 91 | 131 | 3.0 | 6.0 | 0.00 | 0.00 | 0.00 | 52 | 1015.4 |
| 20260901004627 | 91 | 111 | 3.0 | 6.0 | 0.00 | 0.00 | 0.00 | 51 | 1015.4 |
| 20260901004126 | 91 | 119 | 4.0 | 9.0 | 0.00 | 0.00 | 0.00 | 51 | 1015.4 |
| 20260901003625 | 92 | 113 | 4.0 | 9.0 | 0.00 | 0.00 | 0.00 | 51 | 1015.5 |
| 20260901003122 | 92 | 116 | 5.0 | 11.0 | 0.00 | 0.00 | 0.00 | 51 | 1015.4 |
| 20260901002832 | 93 | 111 | 3.0 | 6.0 | 0.00 | 0.00 | 0.00 | 50 | 1015.4 |
| 20260901002820 | 92 | 111 | 4.0 | 11.0 | 0.00 | 0.00 | 0.00 | 49 | 1015.3 |
| 20260901001620 | 93 | 108 | 3.0 | 11.0 | 0.00 | 0.00 | 0.00 | 48 | 1015.4 |
| 20260901001119 | 93 | 126 | 4.0 | 11.0 | 0.00 | 0.00 | 0.00 | 47 | 1015.3 |
| 20260901000619 | 93 | 106 | 4.0 | 11.0 | 0.00 | 0.00 | 0.00 | 48 | 1015.3 |
| 20260901000118 | 94 | 100 | 3.0 | 11.0 | 0.00 | 0.00 | 0.00 | 47 | 1015.3 |
| 20260831235617 | 94 | 125 | 4.0 | 7.0 | 0.00 | 0.00 | 0.00 | 47 | 1015.3 |
| 20260831235118 | 94 | 102 | 3.0 | 11.0 | 0.00 | 0.00 | 0.00 | 46 | 1015.3 |
| 20260831234840 | 94 | 102 | 4.0 | 11.0 | 0.00 | 0.00 | 0.00 | 46 | 1015.3 |
| 20260831234115 | 95 | 101 | 5.0 | 11.0 | 0.00 | 0.00 | 0.00 | 46 | 1015.4 |
| 20260831233610 | 95 | 105 | 5.0 | 11.0 | 0.00 | 0.00 | 0.00 | 46 | 1015.4 |
| 20260831233109 | 95 | 123 | 5.0 | 11.0 | 0.00 | 0.00 | 0.00 | 46 | 1015.4 |
| 20260831232610 | 96 | 67 | 6.0 | 11.0 | 0.00 | 0.00 | 0.00 | 45 | 1015.4 |
| 20260831232109 | 96 | 104 | 6.0 | 12.0 | 0.00 | 0.00 | 0.00 | 44 | 1015.4 |
| 20260831231608 | 96 | 116 | 5.0 | 12.0 | 0.00 | 0.00 | 0.00 | 44 | 1015.5 |
| 20260831231106 | 96 | 99 | 5.0 | 10.0 | 0.00 | 0.00 | 0.00 | 44 | 1015.4 |
| 20260831230603 | 96 | 103 | 4.0 | 10.0 | 0.00 | 0.00 | 0.00 | 46 | 1015.5 |
| 20260831230103 | 96 | 144 | 4.0 | 12.0 | 0.00 | 0.00 | 0.00 | 48 | 1015.5 |
| 20260831225603 | 97 | 124 | 3.0 | 12.0 | 0.00 | 0.00 | 0.00 | 47 | 1015.4 |
| 20260831225102 | 96 | 151 | 5.0 | 10.0 | 0.00 | 0.00 | 0.00 | 46 | 1015.6 |
| 20260831224602 | 96 | 160 | 5.0 | 10.0 | 0.00 | 0.00 | 0.00 | 48 | 1015.6 |
| 20260831224102 | 96 | 127 | 4.0 | 10.0 | 0.00 | 0.00 | 0.00 | 48 | 1015.6 |
| 20260831223603 | 96 | 113 | 4.0 | 8.0 | 0.00 | 0.00 | 0.00 | 48 | 1015.6 |
| 20260831223102 | 97 | 123 | 4.0 | 8.0 | 0.00 | 0.00 | 0.00 | 47 | 1015.6 |
| 20260831222602 | 96 | 182 | 4.0 | 13.0 | 0.00 | 0.00 | 0.00 | 47 | 1015.6 |
| 20260831222329 | 96 | 123 | 5.0 | 13.0 | 0.00 | 0.00 | 0.00 | 47 | 1015.7 |
| 20260831221603 | 96 | 159 | 7.0 | 15.0 | 0.00 | 0.00 | 0.00 | 49 | 1015.7 |
| 20260831221102 | 96 | 117 | 7.0 | 15.0 | 0.00 | 0.00 | 0.00 | 47 | 1015.7 |
| 20260831220602 | 96 | 126 | 5.0 | 12.0 | 0.00 | 0.00 | 0.00 | 48 | 1015.8 |
| 20260831220057 | 96 | 135 | 5.0 | 11.0 | 0.00 | 0.00 | 0.00 | 50 | 1015.8 |
| 20260831215553 | 95 | 115 | 6.0 | 11.0 | 0.00 | 0.00 | 0.00 | 48 | 1015.7 |
| 20260831215046 | 95 | 132 | 7.0 | 12.0 | 0.00 | 0.00 | 0.00 | 46 | 1015.8 |
| 20260831214541 | 97 | 119 | 5.0 | 12.0 | 0.00 | 0.00 | 0.00 | 49 | 1016.0 |
| 20260831214041 | 97 | 117 | 4.0 | 11.0 | 0.00 | 0.00 | 0.00 | 47 | 1015.9 |
| 20260831213542 | 96 | 110 | 6.0 | 11.0 | 0.00 | 0.00 | 0.00 | 46 | 1015.9 |
| 20260831213039 | 96 | 116 | 5.0 | 11.0 | 0.00 | 0.00 | 0.00 | 48 | 1016.0 |
| 20260831212539 | 97 | 92 | 3.0 | 9.0 | 0.00 | 0.00 | 0.00 | 48 | 1016.1 |
| 20260831212039 | 97 | 155 | 4.0 | 9.0 | 0.00 | 0.00 | 0.00 | 49 | 1016.1 |
| 20260831211800 | 96 | 136 | 5.0 | 11.0 | 0.00 | 0.00 | 0.00 | 49 | 1016.2 |
| 20260831211039 | 96 | 119 | 4.0 | 11.0 | 0.00 | 0.00 | 0.00 | 48 | 1016.3 |
| 20260831210537 | 96 | 163 | 4.0 | 14.0 | 0.00 | 0.00 | 0.00 | 49 | 1016.5 |
| 20260831210035 | 96 | 136 | 5.0 | 14.0 | 0.00 | 0.00 | 0.00 | 48 | 1016.5 |
| 20260831205759 | 95 | 103 | 7.0 | 15.0 | 0.00 | 0.00 | 0.00 | 49 | 1016.6 |
| 20260831205305 | 96 | 147 | 7.0 | 15.0 | 0.00 | 0.00 | 0.00 | 49 | 1016.8 |
| 20260831204536 | 96 | 119 | 4.0 | 12.0 | 0.00 | 0.00 | 0.00 | 49 | 1016.8 |
| 20260831204035 | 95 | 174 | 5.0 | 11.0 | 0.00 | 0.00 | 0.00 | 51 | 1016.9 |
| 20260831203533 | 95 | 130 | 6.0 | 12.0 | 0.00 | 0.00 | 0.00 | 52 | 1017.1 |
| 20260831203034 | 96 | 121 | 5.0 | 12.0 | 0.00 | 0.00 | 0.00 | 51 | 1017.2 |
| 20260831202533 | 95 | 101 | 6.0 | 12.0 | 0.00 | 0.00 | 0.00 | 49 | 1017.3 |
| 20260831202031 | 96 | 0 | 6.0 | 13.0 | 0.00 | 0.00 | 0.00 | 49 | 1017.3 |
| 20260831201537 | 96 | 202 | 5.0 | 13.0 | 0.00 | 0.00 | 0.00 | 48 | 1017.3 |
| 20260831201030 | 96 | 209 | 6.0 | 11.0 | 0.00 | 0.00 | 0.00 | 50 | 1017.4 |
| 20260831200524 | 96 | 159 | 4.0 | 11.0 | 0.00 | 0.00 | 0.00 | 49 | 1017.5 |
| 20260831200020 | 96 | 124 | 4.0 | 10.0 | 0.00 | 0.00 | 0.00 | 51 | 1017.5 |
| 20260831195517 | 95 | 175 | 5.0 | 10.0 | 0.00 | 0.00 | 0.00 | 51 | 1017.6 |
| 20260831195017 | 95 | 188 | 7.0 | 12.0 | 0.00 | 0.00 | 0.00 | 51 | 1017.6 |
| 20260831194517 | 95 | 140 | 7.0 | 13.0 | 0.00 | 0.00 | 0.00 | 53 | 1017.7 |
| 20260831194233 | 95 | 111 | 6.0 | 15.0 | 0.00 | 0.00 | 0.00 | 53 | 1017.7 |
| 20260831193515 | 94 | 164 | 5.0 | 15.0 | 0.00 | 0.00 | 0.00 | 53 | 1017.7 |
| 20260831193016 | 95 | 191 | 5.0 | 12.0 | 0.00 | 0.00 | 0.00 | 54 | 1017.8 |